Find Starlink 32642

NORAD ID: 62211 Int'l Des: 2024-229 Owner: SPXS Country: US Constellation: starlink operational
LEOCIRCULAR

Live Position

Loading 3D Globe...

About Starlink 32642

Description loading...

Upcoming Passes

Passes for default location (London). Set your location on the main map for personalized predictions.

Altitude History

Loading altitude history...

Two-Line Element Set

1 62211U 24229V 26110.20774391 .00013097 00000-0 48486-3 0 9997
2 62211 42.9996 36.0184 0001273 266.6669 93.4037 15.27562314 76914
Epoch: Apr 20, 2026 • Age: 17 hours

Current Status

Altitude 494.8 km
Velocity 7.62 km/s
Sub-Earth Point -41.38°S, 106.18°E
Launch Date Dec 4, 2024
Age 1.3 years
Type internet

Technical Details

Classification Payload
Mass 730.00 kg
Dry Mass 700.00 kg
Total Mass 730.00 kg
Length 0.30 m
Diameter 4.10 m
Span 29.00 m
Shape Box + pan
Manufacturer SPXS
Bus Type Starlink V2M
Phase Status In Orbit
Owner/State SPXS/US

Most Searched